Regional Weather Roundup
Issued by NWS

Home | Current Version | Previous Version | Text Only | Print | Product List | Glossary Off
Versions: 1 2 3 4 5 6 7 8 9 10 11 12 13 14 15 16 17 18 19 20 21 22 23 24 25 26 27 28 29 30 31 32 33 34 35 36 37 38 39 40 41 42 43 44 45 46 47 48 49 50

000
ASUS45 KTFX 270519
RWRMT
MONTANA HOURLY WEATHER ROUNDUP
NATIONAL WEATHER SERVICE GREAT FALLS MT
1119 PM MDT THU MAR 26 2015

NOTE: "FAIR" INDICATES FEW OR NO CLOUDS BELOW 12000 FEET WITH NO
SIGNIFICANT WEATHER AND/OR OBSTRUCTIONS TO VISIBILITY.

* THESE STATIONS ARE NOT UNDER NWS QUALITY CONTROL. THEY DO NOT
   REPORT WEATHER SUCH AS PRECIPITATION OR FOG.

MTZ001>007-043-270600-
WEST OF THE DIVIDE
CITY           SKY/WX    TMP DP  RH WIND       PRES   REMARKS
KALISPELL      FOG       36  36 100 W5        30.24F VSB 3/4  WCI  32
MISSOULA       CLEAR     43  37  79 NW5       30.29S
BUTTE          MOCLDY    45  34  65 NW5       30.31S
MULLAN PASS    PTCLDY    41  37  86 SW7       30.28F
* ESSEX        N/A       40  38  93 W1         N/A
* EUREKA APT   CLEAR     48  41  77 SE9       30.21F
* HAMILTON APT CLEAR     46  37  71 S8        30.29S
* LIBBY APT    PTCLDY    45  37  74 S3        30.23S
* LINCOLN      N/A       46  37  71 S4G9       N/A
* LOOKOUT PASS N/A       40  39  96 N/A        N/A
* POLSON       N/A       46  41  83 SE1        N/A
* SEELEY LAKE  N/A       39  36  89 NE3        N/A
* THOMP F APT  PTCLDY    42  30  63 N5         N/A
$$

MTZ008-052>055-270600-
SOUTHWEST MONTANA
CITY           SKY/WX    TMP DP  RH WIND       PRES   REMARKS
BOZEMAN        MOCLDY    45  36  71 S5        30.26S
DILLON         CLOUDY    48  34  59 S7        30.29S
* W YELLOWSTON PTCLDY    33  29  85 N1         N/A
* BOULDER HILL N/A       48  29  48 S2G10      N/A
* HOMESTAKE PS N/A       41  33  73 W8         N/A
* MONIDA PASS  N/A       36  30  79 W1         N/A
* RAYNOLDS PAS N/A       35  25  67 SW7        N/A   WCI  29
* WHITEHALL    N/A       52  35  52 W6         N/A
* WISE RIVER   N/A       41  32  70 E2         N/A
$$

MTZ009>010-012-014-046-048-049-054-270600-
EAST SLOPES AND CENTRAL MONTANA
CITY           SKY/WX    TMP DP  RH WIND       PRES   REMARKS
CUT BANK       CLOUDY    50  37  61 W25G33    30.07F
GREAT FALLS    MOCLDY    52  36  55 SW15      30.12S
HELENA         MOCLDY    55  36  49 W18G26    30.21S
MALMSTROM AFB  MOCLDY    52  37  57 SW14      30.12F
* DEARBORN     N/A       53  37  55 N/A        N/A
* EAST GLACIER N/A       47  37  68 W28G38     N/A
* MONARCH      N/A       47  28  48 SW9G14     N/A
* PENDROY      N/A       51  33  50 W18G23     N/A
* ROGERS PASS  N/A       44  36  74 SE15G25    N/A
* WHITE SULPH  N/A       45  34  65 E2G20      N/A
$$

MTZ011-013-016-021-035-040-045-047-050-051-270600-
NORTH CENTRAL MONTANA
CITY           SKY/WX    TMP DP  RH WIND       PRES   REMARKS
HAVRE          CLOUDY    52  37  57 SW14      30.03F
LEWISTOWN      MOCLDY    50  36  59 N6        30.12S
* N BAR RANCH  CLEAR     52  36  55 NW14G20   30.10S
* CHINOOK      CLOUDY    52  39  61 W6        30.02S
* CHESTER      N/A       51  38  61 W12G18     N/A
* DENTON       N/A       50  32  50 W10        N/A
* GEYSER       N/A       51  30  45 W19G26     N/A
* JUDITH GAP   N/A       48  32  54 W14        N/A
* LOMA         N/A       55  37  51 SW10G17    N/A
$$

MTZ017>020-022>027-061-062-270600-
NORTHEAST MONTANA
CITY           SKY/WX    TMP DP  RH WIND       PRES   REMARKS
GLASGOW        CLOUDY    43  32  65 E14       30.03F
GLENDIVE       PTCLDY    39  32  76 S9        30.09F WCI  33
JORDAN         MOCLDY    46  34  63 E5        30.03F
SIDNEY         MOCLDY    37  30  76 SE9       30.10F WCI  30
WOLF POINT     CLOUDY    39  34  82 E8        30.06F WCI  33
* BEAVER HILL  N/A       36  30  79 SE14       N/A   WCI  27
* CIRCLE       N/A       43  34  71 SE5G10     N/A
* LINDSAY DVD  N/A       38  32  79 E4         N/A
* NAVAJO       N/A       36  31  82 S9         N/A   WCI  29
* PLENTYWOOD A MOCLDY    37  30  76 SE12      30.07F WCI  29
* POPLAR APT   CLOUDY    39  34  82 SE7       30.07F WCI  34
* SACO         N/A       42  34  73 E10        N/A
$$

MTZ028>042-056>058-270600-
SOUTHCENTRAL AND SOUTHEAST MONTANA
CITY           SKY/WX    TMP DP  RH WIND       PRES   REMARKS
BAKER          CLOUDY    37  32  82 S15       30.11F WCI  28
BILLINGS       CLOUDY    55  36  49 W17       30.11R
LIVINGSTON     PTCLDY    48  34  59 W9        30.21F
MILES CITY     CLOUDY    46  30  54 SE10      30.06S
* BIG TIMBER A PTCLDY    54  36  51 W31G36    30.14F
* FORSYTH APT  CLOUDY    48  39  71 E3        30.05S
* ALZADA       N/A       37  30  76 E8         N/A   WCI  31
* HYSHAM       N/A       52  33  48 W5         N/A
* LAME DEER    N/A       44  36  74 S5         N/A
* REED POINT   N/A       57  33  40 W19G30     N/A
* ROSCOE HILL  N/A       53  17  24 W3G14      N/A
$$

REGIONAL REPORTS...DAKOTAS
CITY           SKY/WX    TMP DP  RH WIND       PRES   REMARKS
WILLISTON      CLOUDY    37  28  70 S8        30.12F WCI  31
DICKINSON      CLOUDY    32  27  82 S13       30.13F WCI  22
BEACH          CLOUDY    36  32  85 SE15      30.11F WCI  27
CROSBY         CLEAR     34  27  76 S14       30.12F WCI  24
TIOGA          CLOUDY    32  27  82 S13       30.16F WCI  22
WATFORD CITY   CLEAR     36  27  70 SE13      30.11F WCI  27
BISMARCK       PTCLDY    23  16  74 E3        30.24F
GRAND FORKS    CLEAR     16  12  84 CALM      30.30F
FARGO          CLEAR     18  10  71 NW7       30.31R WCI   9
BUFFALO SD     CLOUDY    34  32  92 S12       30.08F WCI  25
RAPID CITY     CLOUDY    34  27  76 SE8       30.17S WCI  27
$$

REGIONAL REPORTS...WYOMING/IDAHO/WASHINGTON
CITY           SKY/WX    TMP DP  RH WIND       PRES   REMARKS
GILLETTE       CLOUDY    41  37  86 S6        30.12S
SHERIDAN       CLOUDY    50  37  61 W7        30.11R
CODY           PTCLDY    54  30  40 W20G31    30.16S
YELLOWSTONE LA PTCLDY    28  27  96 CALM      30.39S
SALMON         PTCLDY    45  36  71 CALM      30.30R
MULLAN PASS    PTCLDY    41  37  86 SW7       30.28S
SAND POINT     MOCLDY    45  45 100 CALM      30.23S
SPOKANE        FAIR      54  45  72 SE3       30.20F
$$

REGIONAL REPORTS...ALBERTA
CITY           SKY/WX    TMP DP  RH WIND       PRES   REMARKS
CALGARY        MOCLDY    55  32  42 W14G24    29.99S
LETHBRIDGE     MOCLDY    55  39  55 W24G33    30.02S
MEDICINE HAT   PTCLDY    48  39  71 SW7       29.97S
EDMONTON       MOCLDY    39  32  76 S6        29.91S WCI  35
WATERTON GATE  N/A       48  37  66 SW21G32    N/A
CARDSTON       N/A       54  37  53 W18G25     N/A
MILK RIVER     N/A       48  39  71 W14        N/A
$$

REGIONAL REPORTS...SASKATCHEWAN
CITY           SKY/WX    TMP DP  RH WIND       PRES   REMARKS
SWIFT CURRENT  MOCLDY    41  32  70 S14       29.95F
REGINA         LGT SNOW  32  30  92 SE14      30.08S WCI  22
VAL MARIE      N/A       41  32  70 S5         N/A
ASSINIBOIA     N/A       37  34  89 S10G18     N/A   WCI  30
CORONACH       N/A       36  32  85 SE8        N/A   WCI  30

$$




USA.gov is the U.S. government's official web portal to all federal, state and local government web resources and services.